Gypsum, CO

9:54 PM MST on February 23, 2017 (GMT -0700)
Eagle County Regional

Weather History for KEGE - February, 2013

Change the Weather History Date:

Sunday, February 3, 2013

  Actual Average Record
Temperature  
Mean Temperature 25 °F -  
Max Temperature 35 °F 35 °F 53 °F (2000)
Min Temperature 15 °F 3 °F -25 °F (1950)
Degree Days  
Heating Degree Days 40    
Moisture  
Dew Point 16 °F    
Average Humidity 80    
Maximum Humidity 93    
Minimum Humidity 48    
Precipitation  
Precipitation 0.00 in - - ()
Sea Level Pressure  
Sea Level Pressure 30.22 in    
Wind  
Wind Speed 2 mph (ESE)    
Max Wind Speed 7 mph    
Max Gust Speed -    
Visibility 10 miles    
Events      
Averages and records for this station are not official NWS values.
T = Trace of Precipitation, MM = Missing Value Source: NWS Daily Summary

Daily Weather History Graph

Daily Weather History Graph

Search for Another Location

Airport or City:

Trip Planner

Search our weather history database for the weather conditions in past years. The results will help you decide how hot, cold, wet, or windy it might be!

Date:

Astronomy

Feb. 03, 2013 Rise Set
Actual Time 7:13 AM MST 5:30 PM MST
Civil Twilight 6:44 AM MST 5:58 PM MST
Nautical Twilight 6:12 AM MST 6:30 PM MST
Astronomical Twilight 5:41 AM MST 7:02 PM MST
Moon 12:44 AM MST (2/3) 11:09 AM MST (2/3)
Length of Visible Light 11h 13m
Length of Day
10h 17m
Waning Gibbous, 48% of the Moon is Illuminated
Feb 3
Waning Gibbous
Feb 10
New
Feb 17
First Quarter
Feb 25
Full
Mar 4
Last Quarter

Hourly Weather History & Observations

Time (MST) Temp. Windchill Dew Point Humidity Pressure Visibility Wind Dir Wind Speed Gust Speed Precip Events Conditions
12:15 AM 19.4 °F 14.3 °F 15.8 °F 86% 30.36 in 10.0 mi East 3.5 mph - N/A   Clear
12:35 AM 19.4 °F 14.3 °F 15.8 °F 86% 30.35 in 10.0 mi ESE 3.5 mph - N/A   Clear
12:55 AM 17.6 °F - 15.8 °F 93% 30.35 in 10.0 mi Calm Calm - N/A   Clear
1:15 AM 17.6 °F - 15.8 °F 93% 30.34 in 10.0 mi Calm Calm - N/A   Clear
1:35 AM 17.6 °F 12.3 °F 15.8 °F 93% 30.34 in 10.0 mi East 3.5 mph - N/A   Clear
1:55 AM 17.6 °F 10.7 °F 15.8 °F 93% 30.33 in 10.0 mi ESE 4.6 mph - N/A   Clear
2:15 AM 17.6 °F - 14.0 °F 86% 30.33 in 10.0 mi Calm Calm - N/A   Clear
2:35 AM 17.6 °F - 14.0 °F 86% 30.33 in 10.0 mi Calm Calm - N/A   Clear
2:55 AM 15.8 °F - 14.0 °F 93% 30.33 in 10.0 mi Calm Calm - N/A   Clear
3:15 AM 17.6 °F 10.7 °F 15.8 °F 93% 30.32 in 10.0 mi East 4.6 mph - N/A   Clear
3:35 AM 17.6 °F 10.7 °F 15.8 °F 93% 30.31 in 10.0 mi East 4.6 mph - N/A   Clear
3:55 AM 17.6 °F 10.7 °F 14.0 °F 86% 30.31 in 10.0 mi ESE 4.6 mph - N/A   Clear
4:15 AM 17.6 °F 12.3 °F 14.0 °F 86% 30.30 in 10.0 mi SE 3.5 mph - N/A   Clear
4:35 AM 17.6 °F - 14.0 °F 86% 30.30 in 10.0 mi Calm Calm - N/A   Clear
4:55 AM 15.8 °F - 14.0 °F 93% 30.30 in 10.0 mi Calm Calm - N/A   Clear
5:15 AM 15.8 °F - 12.2 °F 86% 30.29 in 10.0 mi Calm Calm - N/A   Clear
5:35 AM 15.8 °F - 12.2 °F 86% 30.29 in 10.0 mi Calm Calm - N/A   Clear
6:15 AM 15.8 °F 10.2 °F 12.2 °F 86% 30.28 in 10.0 mi SE 3.5 mph - N/A   Clear
6:35 AM 15.8 °F - 12.2 °F 86% 30.28 in 10.0 mi Calm Calm - N/A   Clear
6:50 AM 15.8 °F - 12.2 °F 86% 30.27 in 10.0 mi Calm Calm - N/A   Mostly Cloudy
7:50 AM 15.8 °F - 12.2 °F 86% 30.27 in 10.0 mi Calm Calm - N/A   Mostly Cloudy
8:50 AM 15.8 °F - 12.2 °F 86% 30.25 in 10.0 mi Calm Calm - N/A   Mostly Cloudy
9:50 AM 19.4 °F - 15.8 °F 86% 30.22 in 10.0 mi Calm Calm - N/A   Mostly Cloudy
10:50 AM 23.0 °F - 17.6 °F 80% 30.20 in 10.0 mi Calm Calm - N/A   Mostly Cloudy
11:50 AM 28.4 °F - 19.4 °F 69% 30.15 in 10.0 mi Calm Calm - N/A   Mostly Cloudy
12:50 PM 30.2 °F - 17.6 °F 60% 30.10 in 10.0 mi Calm Calm - N/A   Mostly Cloudy
1:50 PM 35.6 °F - 17.6 °F 48% 30.07 in 10.0 mi Calm Calm - N/A   Mostly Cloudy
2:50 PM 35.6 °F - 17.6 °F 48% 30.05 in 10.0 mi Calm Calm - N/A   Mostly Cloudy
3:50 PM 35.6 °F - 19.4 °F 52% 30.06 in 10.0 mi Calm Calm - N/A   Mostly Cloudy
4:50 PM 35.6 °F - 17.6 °F 48% 30.04 in 10.0 mi Calm Calm - N/A   Mostly Cloudy
5:50 PM 33.8 °F 30.8 °F 19.4 °F 56% 30.05 in 10.0 mi ESE 3.5 mph - N/A   Scattered Clouds
6:50 PM 30.2 °F - 21.2 °F 69% 30.06 in 10.0 mi Calm Calm - N/A   Scattered Clouds
7:50 PM 28.4 °F 21.2 °F 19.4 °F 69% 30.07 in 10.0 mi SE 6.9 mph - N/A   Scattered Clouds
8:50 PM 24.8 °F 16.9 °F 17.6 °F 74% 30.08 in 10.0 mi East 6.9 mph - N/A   Partly Cloudy
10:50 PM 21.2 °F 12.6 °F 15.8 °F 80% 30.09 in 10.0 mi East 6.9 mph - N/A   Partly Cloudy
11:15 PM 21.2 °F 14.9 °F 15.8 °F 80% 30.10 in 10.0 mi East 4.6 mph - N/A   Clear
11:35 PM 19.4 °F 11.5 °F 15.8 °F 86% 30.12 in 10.0 mi ESE 5.8 mph - N/A   Clear
11:55 PM 21.2 °F 13.6 °F 15.8 °F 80% 30.12 in 10.0 mi East 5.8 mph - N/A   Clear